Retour au catalogue

STARLINK-36317

ActifCommunicationsSSO
NORAD 67736·PAYLOAD·🇺🇸 United States

Lancé Feb 11, 2026 depuis Vandenberg Space Force Base

Loading…

Prochains Passages (prochaines 24 heures)

TLE

FraisSource: CelesTrak SupGP

Époque: Sep 14, 2026, 22:43 UTC

1 67736C 26026R   26257.94701389  .00009152  00000+0  28411-3 0  2570
2 67736  97.2849 309.8753 0001165  86.8992 164.3959 15.33431440    16

Suivez STARLINK-36317 en temps réel avec AllMySat

Download on the App Store